Погода в Неволине

Россия / Тюменская область     56°17′47″N   69°54′15″E
темп.,
°C
ветер,
м/с
пор.,
м/с
влажн.,
%
обл.,
%
осадки,
мм/ч
давл.,
гПа
погр.,
м
23 апреля, пт
пт2323:00+3ююв5135512 0.0 1041309
02:00+2ююв61454100 0.0 1041365
05:00+1ююв6145747 0.0 1041348
08:00+4ю7125186 0.0 1041493
11:00+8ю7940100 0.0 1040905
14:00+11ю7836100 0.0 10391183
17:00+10ю5737100 0.0 10381123
20:00+7ююв4945100 0.0 1038196
24 апреля, сб
сб2423:00+4ююв41251100 0.0 1037257
02:00+4ююв51155100 0.0 1035272
05:00+2ююв41061100 0.0 1034238
08:00+5ю51050100 0.0 1033411
11:00+9ю6836100 0.0 10321056
14:00+10ю7832100 0.0 10301414
17:00+9ю5841100 0.0 10291000
20:00+7ююв3850100 0.0 1028233
25 апреля, вс
вс2523:00+5юв3956100 0.0 1027244
02:00+4юв41058100 0.0 1025234
05:00+5юв51159100 0.0 1024230
08:00+7юв61255100 0.0 1022455
11:00+10юв81143100 0.0 1020857
14:00+14ююв8103295 0.0 10182209
17:00+13юв6103577 0.0 10171694
20:00+11юв6114296 0.0 1016341
26 апреля, пн
пн2623:00+10ю486550 0.0 1016276
02:00+8ю51173100 0.0 1014303
05:00+9ююз61275100 0.2 1014613
08:00+9зюз7116410 0.0 10151241
11:00+11зюз8114666 0.1 10151920
14:00+13з81136100 0.0 10162679
17:00+9з6958100 0.3 1017895
20:00+7юз38645 0.2 1018210
27 апреля, вт
вт2723:00+6юз49655 0.2 1018175
02:00+6юз5106225 0.0 1018225
05:00+4юз3764100 0.0 1018130
08:00+9юз4850100 0.0 1018349
11:00+10юз7852100 0.0 1017959
14:00+8ю6774100 0.2 1014897
17:00+6юв4689100 1.8 1012522
20:00+6в3593100 0.6 1009262